Location: 5810 Zion Rd, Cleves, OH 45002, USA
(39.1922°N, 84.7113°W)
Time: 12:26:54
(UTC-05:00)

Hubble Space Telescope - Visible Passes

Search period start: 25 February 2021 00:00
Search period end: 07 March 2021 00:00
Orbit: 536 x 539 km, 28.5° (Epoch: 25 February)

Date Brightness Start Highest point End Pass type
(mag) Time Alt. Az. Time Alt. Az. Time Alt. Az.
04 Mar 3.1 20:20:27 10° SSW 20:21:25 12° S 20:21:25 12° S visible
05 Mar 2.9 20:09:07 10° SSW 20:11:20 15° S 20:11:20 15° S visible
06 Mar 2.7 19:57:54 10° SSW 20:00:28 16° S 20:01:12 15° SSE visible
